Temperature
24 25 26 26 26 26 25 23 22 22 22 22 22 22 23 23 23 22 22 22 22 21 21 21 21 21 20 20 19 19 19 18 18 18 17 17 17 17 16 16 16 16 16 16
24 25 25 25 26 26 25 25 24 23 23 22 23 23 22 22 22 22 21 21 21 21 21 21 21 20 20 19 19 19 18 18 18 18 17 17 17 16 16 16 16 16 16 16
22 24 24 24 24 25 24 24 23 23 22 22 21 21 22 22 22 22 21 21 21 21 21 21 20 20 20 19 19 19 18 18 18 17 17 17 17 16 16 16 16 16 16 15
20 22 23 23 24 25 24 24 23 22 22 22 22 22 22 23 22 22 21 21 21 21 20 20 20 20 19 19 19 18 18 18 17 17 17 17 16 16 16 16 16 16 15 15
19 21 22 23 24 24 24 22 22 22 22 22 22 21 21 22 22 22 21 21 20 20 20 20 19 19 19 19 18 18 18 17 17 17 17 16 16 16 16 16 16 16 15 15
19 21 21 22 24 25 23 21 22 22 21 21 21 18 19 21 21 21 21 20 20 20 20 19 19 19 18 18 18 18 17 17 17 16 16 16 16 16 16 16 16 15 15 15
19 20 21 22 24 24 22 21 22 22 22 22 20 20 21 21 21 21 20 20 20 19 19 19 18 18 18 18 18 17 17 17 16 16 16 16 16 16 16 15 15 15 15 15
18 19 20 22 22 21 20 22 22 22 22 21 21 21 20 20 20 20 20 19 19 19 18 18 18 18 18 17 17 17 17 16 16 16 16 16 16 16 15 15 15 15 15 15
17 18 20 22 22 23 23 22 22 22 21 21 20 20 20 19 19 19 19 19 19 18 18 18 18 17 17 17 17 16 16 16 16 16 16 16 15 15 15 15 14 14 14 14
17 19 20 21 22 22 23 22 22 22 21 21 20 19 19 19 19 19 19 19 18 18 18 17 17 17 17 17 16 16 16 16 16 15 15 15 15 15 14 14 14 14 14 14
17 18 19 21 21 21 21 22 21 21 21 20 20 19 19 19 19 18 18 18 18 17 17 17 17 16 16 16 16 16 16 15 15 15 15 15 15 14 14 14 14 14 13 13
17 18 18 19 20 21 20 20 20 20 19 19 19 19 19 18 18 18 18 17 17 17 16 16 16 16 16 15 15 15 15 15 15 15 15 14 14 14 14 14 14 13 13 13
20 20 20 19 20 20 20 20 20 20 19 19 19 19 18 18 18 18 17 17 17 16 16 16 16 15 15 15 15 15 15 14 14 14 14 14 14 14 14 13 13 13 13 13
20 19 19 19 19 19 20 19 19 19 19 19 18 18 18 18 17 17 17 17 16 16 16 15 15 15 15 15 15 15 14 14 14 14 14 14 13 13 13 13 13 13 13 12
19 19 19 19 19 19 19 19 19 18 18 18 18 18 17 17 17 17 16 16 16 15 15 15 15 15 15 14 14 14 14 14 14 14 14 13 13 13 13 13 12 12 12 12
19 19 18 18 18 18 18 18 18 18 18 17 17 17 17 17 16 16 16 16 15 15 15 15 14 14 14 14 14 14 14 14 13 13 13 13 13 13 12 12 12 12 12 11
18 17 18 18 18 18 18 18 18 17 17 17 17 16 16 16 16 15 15 15 15 15 14 14 14 14 14 14 14 14 14 13 13 13 13 13 12 12 12 12 12 11 11 11
17 17 17 17 18 17 17 17 17 17 17 16 16 16 16 15 15 15 15 14 14 14 14 14 14 14 13 13 13 13 13 13 13 13 12 12 12 12 12 11 11 11 11 11
17 17 17 17 17 17 17 17 17 17 16 16 16 15 15 15 15 14 14 14 14 14 13 13 13 13 13 13 13 13 13 13 12 12 12 12 12 11 11 11 11 11 11 10
16 16 17 17 17 16 16 16 16 16 16 15 15 15 15 14 14 14 14 14 13 13 13 13 13 13 13 13 13 12 12 12 12 12 12 11 11 11 11 11 10 10 10 10
15 16 16 16 16 16 16 16 16 16 15 15 15 15 15 14 14 14 14 13 13 13 13 13 13 13 13 12 12 12 12 12 11 11 11 11 11 11 11 10 10 10 10 10
15 15 15 15 15 15 15 15 15 15 15 15 15 14 14 14 14 13 13 13 13 13 13 13 13 12 12 12 12 12 12 11 11 11 11 11 10 10 10 10 10 10 9 9
15 15 14 15 15 15 15 15 15 15 15 14 14 14 14 14 13 13 13 13 13 13 12 12 12 12 12 12 12 11 11 11 11 11 10 10 10 10 10 10 9 9 9 9
14 14 14 14 14 14 14 14 14 14 14 14 14 14 14 13 13 13 13 12 12 12 12 12 12 12 12 11 11 11 11 11 11 10 10 10 10 9 9 9 9 9 8 8
14 14 14 14 14 14 14 14 14 14 14 13 14 13 13 13 13 12 12 12 12 12 12 12 12 11 11 11 11 11 11 10 10 10 10 10 9 9 9 9 9 8 8 8
13 13 13 13 13 13 13 13 13 13 13 13 13 13 12 12 12 12 12 12 12 12 11 11 11 11 11 11 11 10 10 10 10 10 9 9 9 9 9 8 8 8 8 8
13 13 13 13 13 13 13 13 13 13 13 13 12 12 12 12 12 12 11 11 11 11 11 11 11 10 10 10 10 10 10 10 9 9 9 9 9 8 8 8 8 8 8 7
Wind_Speed
4 4 1 1 1 1 1 5 6 7 7 8 8 9 9 8 7 8 7 6 5 5 4 4 4 4 5 5 5 5 4 4 4 3 3 2 2 2 2 2 1 2 2 2
3 3 2 2 2 1 1 2 4 5 4 5 5 6 6 7 8 8 8 7 5 5 4 4 4 5 4 4 4 4 4 3 3 3 2 2 2 2 2 2 2 2 2 3
2 4 4 4 4 2 1 2 5 5 5 4 6 7 7 7 8 8 8 6 5 4 4 3 3 4 5 4 4 4 4 3 3 3 3 3 3 2 3 3 3 3 4 3
1 3 2 7 4 3 4 2 2 3 3 6 7 6 5 6 8 8 7 6 5 3 4 3 3 3 3 4 4 4 3 3 3 3 3 3 2 3 4 3 3 4 4 4
3 3 4 6 4 2 5 2 2 4 5 6 7 8 4 2 6 8 8 7 6 5 5 4 4 3 4 3 3 2 2 2 3 4 3 3 3 4 4 3 3 4 3 4
4 3 5 6 6 2 7 1 1 5 7 7 7 4 3 2 6 7 7 7 7 7 6 5 3 4 4 3 2 0 2 2 2 2 3 4 4 4 3 3 3 3 3 3
3 3 5 5 5 2 4 6 3 4 6 6 4 6 6 6 6 7 7 7 7 6 5 3 3 4 4 2 0 2 1 1 2 2 3 3 3 3 2 2 2 3 3 3
3 3 5 5 3 3 5 4 4 4 5 6 5 6 6 6 6 7 7 6 6 6 4 2 3 4 3 1 2 1 1 2 2 3 3 2 2 2 2 2 2 3 3 3
5 5 5 2 2 3 5 6 5 5 6 8 8 6 5 5 5 5 5 5 5 5 4 2 2 4 3 1 1 1 1 2 3 3 2 2 2 2 1 1 2 3 3 3
2 2 2 2 4 5 3 4 5 7 7 8 7 6 6 5 5 4 4 4 4 4 4 2 2 2 2 1 0 1 2 2 2 2 3 3 2 2 2 2 2 3 3 3
1 2 4 4 4 4 5 4 6 6 6 7 8 6 6 6 5 4 3 3 4 4 4 3 2 1 1 1 0 0 1 3 2 2 2 3 3 2 3 3 4 3 3 3
5 5 3 3 2 2 3 2 5 7 5 4 6 6 6 5 4 4 3 3 3 3 3 2 1 1 1 1 1 1 1 3 2 2 2 2 3 3 4 3 4 3 4 3
5 4 3 2 1 1 2 2 3 6 7 5 4 6 7 5 4 4 4 4 3 3 3 2 1 0 1 1 1 1 2 3 3 2 3 3 2 2 3 4 5 4 4 4
3 4 2 0 1 0 2 3 4 4 4 5 6 6 6 4 3 3 4 4 4 4 3 2 1 2 3 2 1 1 2 3 3 3 3 3 3 3 2 2 3 4 4 5
1 3 3 2 1 2 3 4 4 3 3 3 5 6 6 5 4 3 3 3 4 3 2 2 1 2 3 2 1 2 2 2 2 2 2 2 2 2 2 2 2 3 3 4
1 2 2 2 2 2 3 4 5 3 4 4 4 4 5 5 4 3 3 4 4 3 3 2 3 4 3 1 1 2 2 4 2 1 1 1 1 1 1 2 2 3 3 3
3 1 1 1 2 3 3 4 4 4 4 4 4 5 5 4 3 2 1 1 2 3 2 2 3 3 2 1 1 2 2 3 2 1 1 1 2 2 2 2 2 3 4 4
2 4 3 4 4 3 3 3 4 4 4 5 5 5 5 4 3 2 1 0 1 1 1 2 2 2 2 2 2 2 1 1 1 1 1 1 2 2 2 2 2 3 4 3
3 2 1 2 3 4 4 4 3 3 4 5 5 4 4 4 4 3 2 2 1 1 3 3 2 2 2 3 2 1 1 1 1 1 1 1 2 2 2 2 2 2 2 2
3 3 3 4 3 3 3 3 3 3 3 5 5 4 3 2 3 2 2 2 2 3 3 2 1 2 3 3 2 1 1 1 1 1 1 1 2 2 2 1 1 2 2 2
3 3 4 4 3 3 2 2 3 3 3 4 5 5 4 3 3 3 2 1 2 2 1 1 1 2 3 2 2 1 1 1 2 2 1 1 2 2 1 1 1 1 1 1
2 3 3 3 3 2 1 1 2 2 2 3 3 4 4 3 2 1 2 2 3 2 1 0 1 2 3 2 1 1 1 1 1 1 1 1 1 1 1 0 0 1 1 1
1 2 2 2 2 1 1 1 1 2 2 3 3 3 3 3 2 2 1 2 2 2 1 1 1 2 2 1 1 1 1 1 0 0 1 1 1 1 1 0 0 1 1 1
2 1 1 1 2 2 1 1 1 1 1 1 2 2 3 2 0 1 2 2 1 1 1 1 1 2 1 1 1 1 1 1 1 0 0 1 1 0 0 0 0 0 1 1
1 1 1 2 1 1 1 1 2 1 1 1 0 0 1 2 2 1 1 1 2 1 0 1 1 1 1 1 1 1 1 1 0 0 1 0 1 0 0 0 1 1 1 0
1 1 1 1 2 2 1 2 1 0 1 1 1 1 0 1 1 1 1 0 1 1 1 1 1 1 1 1 1 1 1 1 2 1 1 0 0 0 0 0 1 0 0 0
1 1 1 0 0 1 2 2 2 1 1 1 0 0 0 1 1 1 1 1 1 1 1 1 1 1 1 1 1 1 1 1 1 1 1 1 1 0 0 0 0 0 0 0
Wind_Direction
218 234 213 199 253 334 180 191 183 208 193 207 198 176 166 154 145 133 131 134 142 147 153 158 161 173 175 173 171 164 160 169 193 204 209 216 233 252 258 256 260 254 273 275
336 323 15 352 301 253 238 197 166 165 218 224 175 144 141 148 146 143 142 144 147 145 145 153 161 167 163 162 162 152 159 182 189 188 197 220 235 243 256 265 271 265 263 262
281 305 13 318 265 220 199 165 161 183 213 155 132 145 156 158 150 148 148 145 145 149 151 148 144 149 148 151 150 148 161 182 185 190 201 221 234 240 247 255 264 267 265 259
152 41 234 252 257 158 122 78 106 134 144 146 152 148 134 137 140 145 142 141 141 135 117 108 110 112 133 132 136 152 173 191 198 197 216 229 233 244 250 252 257 258 261 257
132 173 256 292 289 168 129 56 51 118 126 124 110 82 52 102 135 142 141 138 135 126 116 103 103 118 117 116 119 129 183 218 224 212 215 227 236 246 246 251 261 262 261 253
134 156 218 248 278 182 108 71 314 108 128 136 116 116 220 175 127 127 124 124 123 119 115 117 128 121 106 100 92 115 252 253 250 231 221 230 240 248 252 253 258 266 272 259
159 192 246 267 293 80 131 213 221 131 143 140 151 180 175 145 130 130 128 125 124 122 120 128 128 114 108 98 151 253 275 306 297 276 253 241 245 257 268 268 282 279 275 275
147 170 248 297 56 129 194 187 139 123 124 120 120 117 119 122 126 131 129 126 125 122 123 124 121 119 117 155 261 292 347 347 319 300 285 288 256 263 277 283 290 287 281 286
172 200 238 294 139 169 138 122 121 130 133 125 120 127 128 122 120 124 131 134 133 135 134 131 135 130 134 233 328 26 11 334 317 315 304 298 268 265 278 280 279 283 279 280
78 287 306 27 51 39 75 126 129 133 136 131 130 137 138 134 128 125 134 139 138 136 145 162 163 140 161 196 68 40 355 326 329 332 322 320 293 252 238 243 254 274 276 277
110 293 1 9 39 55 50 81 110 120 128 139 140 145 146 142 144 144 141 138 136 144 161 184 182 185 216 246 100 62 330 311 306 305 302 306 297 265 248 238 225 225 248 256
214 221 186 265 283 92 87 105 128 123 118 132 143 150 143 146 154 149 145 138 136 140 151 177 179 195 251 238 162 145 313 312 309 304 300 300 303 313 320 309 295 261 245 247
197 198 175 219 293 85 117 146 139 141 144 143 146 148 145 148 154 148 145 148 153 160 174 180 171 253 286 272 181 201 248 266 274 276 278 283 286 278 300 327 330 321 301 285
151 116 87 120 201 166 135 138 127 130 141 149 155 147 141 139 142 153 170 177 167 154 157 169 176 254 270 251 231 264 267 264 257 250 254 264 271 269 253 262 303 310 304 298
173 143 164 186 171 126 128 119 106 111 118 129 145 146 147 150 162 178 181 164 148 142 158 173 208 265 273 261 263 276 279 274 267 256 253 262 276 277 267 264 274 288 308 314
127 86 84 120 135 130 125 125 125 138 142 135 138 149 154 152 161 168 162 154 152 172 200 204 234 254 257 263 292 288 282 283 283 274 282 288 295 282 269 269 273 280 284 286
124 167 244 205 165 154 153 154 155 164 151 141 147 145 135 122 108 115 146 165 167 190 203 210 243 265 267 254 259 271 281 291 299 317 286 268 264 257 256 266 273 274 274 273
171 187 191 181 163 150 138 139 150 147 147 149 138 132 133 136 143 162 185 144 79 40 308 273 266 280 283 278 269 273 278 273 268 254 260 265 267 261 264 272 275 280 291 300
84 88 85 108 129 131 132 142 146 146 147 140 134 143 152 160 165 173 168 132 133 227 282 283 280 280 285 290 293 276 286 290 282 270 264 285 307 303 291 288 295 298 303 315
72 77 85 74 75 106 119 128 132 138 148 144 139 138 141 164 166 153 137 154 208 219 242 271 311 318 299 298 310 287 282 278 265 275 278 282 289 287 285 289 296 304 319 321
67 71 78 73 63 67 87 118 132 135 144 142 147 158 167 178 175 153 141 200 268 250 233 270 311 306 302 308 322 322 300 276 268 268 273 276 284 285 284 292 314 320 331 336
68 83 79 81 77 57 31 62 112 129 132 142 153 154 154 163 170 173 194 211 226 211 190 274 289 301 309 325 357 345 328 302 276 278 280 282 277 275 279 297 314 319 335 329
112 115 99 102 120 115 50 53 103 137 153 162 164 166 174 184 177 168 233 255 213 198 187 258 286 314 332 23 25 2 350 346 334 311 304 307 281 235 225 178 352 354 355 355
115 111 120 104 96 93 78 350 63 111 142 166 182 180 166 152 187 227 203 205 207 220 259 292 336 350 6 18 17 8 350 336 331 5 10 332 329 311 119 111 66 34 28 19
132 141 137 112 109 149 180 104 79 74 69 78 97 127 137 152 167 197 171 186 207 204 306 313 326 350 2 337 335 334 333 333 346 38 20 359 339 359 41 87 86 77 68 37
176 188 181 178 187 186 167 140 132 125 76 60 357 349 35 105 136 139 121 96 68 71 34 333 329 7 17 346 333 343 352 357 11 6 348 4 29 56 50 51 70 69 35 31
152 136 120 43 182 166 155 147 147 159 149 139 135 349 55 119 121 113 108 88 71 51 32 12 0 30 33 37 39 32 15 10 21 12 3 43 63 69 59 82 112 117 79 28
Height
1501 1497 1495 1496 1497 1496 1502 1508 1517 1514 1511 1505 1501 1500 1501 1503 1506 1508 1510 1512 1513 1513 1514 1515 1516 1518 1518 1519 1519 1519 1519 1519 1518 1518 1517 1517 1516 1515 1514 1513 1512 1511 1510 1508
1501 1494 1494 1497 1494 1494 1496 1498 1502 1504 1505 1497 1498 1499 1501 1503 1505 1507 1509 1510 1512 1513 1514 1514 1515 1516 1517 1517 1518 1518 1518 1517 1516 1516 1515 1514 1513 1513 1512 1511 1510 1509 1507 1506
1513 1501 1499 1508 1497 1495 1496 1495 1498 1504 1501 1495 1498 1499 1500 1501 1503 1505 1507 1509 1510 1512 1513 1514 1514 1514 1515 1516 1517 1517 1516 1515 1515 1514 1513 1512 1511 1510 1509 1508 1507 1506 1505 1504
1515 1512 1523 1506 1487 1487 1491 1495 1493 1494 1494 1494 1495 1497 1499 1500 1502 1504 1506 1508 1510 1511 1512 1513 1514 1514 1514 1515 1515 1514 1514 1513 1513 1512 1511 1510 1509 1508 1507 1506 1504 1503 1502 1501
1519 1521 1515 1499 1488 1487 1493 1499 1494 1494 1494 1495 1496 1498 1501 1502 1502 1504 1505 1507 1509 1510 1511 1512 1512 1512 1513 1513 1513 1512 1512 1512 1511 1510 1509 1508 1507 1506 1505 1503 1502 1501 1499 1498
1513 1518 1521 1503 1486 1483 1489 1505 1495 1493 1494 1495 1495 1504 1504 1501 1502 1503 1505 1507 1508 1509 1510 1510 1510 1511 1511 1511 1511 1510 1510 1510 1509 1508 1507 1506 1505 1504 1502 1501 1499 1498 1497 1495
1512 1515 1508 1491 1485 1484 1504 1506 1495 1493 1493 1493 1494 1496 1498 1500 1502 1503 1504 1506 1507 1508 1509 1509 1510 1510 1509 1509 1509 1509 1508 1508 1507 1506 1505 1504 1503 1502 1500 1499 1497 1495 1494 1492
1511 1516 1511 1488 1486 1492 1494 1490 1492 1492 1493 1493 1494 1496 1498 1499 1501 1502 1503 1505 1506 1507 1508 1508 1508 1508 1508 1508 1508 1507 1506 1505 1504 1503 1503 1501 1500 1499 1497 1496 1494 1492 1490 1488
1502 1504 1493 1488 1487 1487 1486 1488 1490 1492 1493 1493 1495 1496 1498 1499 1500 1502 1503 1504 1505 1506 1507 1507 1507 1507 1506 1506 1506 1505 1504 1503 1502 1501 1500 1499 1497 1496 1494 1493 1491 1489 1487 1485
1496 1493 1490 1488 1487 1488 1488 1488 1489 1491 1493 1494 1495 1496 1498 1499 1500 1501 1503 1503 1504 1505 1505 1505 1506 1505 1505 1504 1504 1503 1501 1500 1499 1498 1497 1496 1494 1493 1491 1490 1488 1486 1484 1482
1495 1492 1490 1489 1488 1488 1489 1489 1489 1491 1492 1493 1494 1496 1497 1498 1499 1500 1501 1502 1503 1503 1503 1503 1503 1503 1502 1502 1501 1500 1499 1498 1497 1495 1494 1493 1492 1490 1488 1487 1485 1484 1481 1480
1494 1490 1491 1490 1489 1489 1490 1490 1490 1490 1492 1493 1494 1494 1496 1497 1498 1499 1500 1501 1501 1501 1501 1501 1501 1501 1500 1499 1498 1497 1496 1495 1493 1492 1491 1490 1489 1487 1486 1484 1483 1481 1479 1477
1485 1486 1487 1488 1488 1488 1488 1490 1490 1490 1490 1491 1493 1493 1494 1495 1496 1497 1498 1499 1499 1499 1499 1499 1499 1498 1498 1498 1496 1495 1494 1493 1491 1490 1489 1487 1486 1484 1482 1481 1480 1478 1476 1474
1482 1483 1485 1486 1486 1487 1487 1488 1489 1489 1489 1490 1490 1491 1493 1494 1495 1495 1496 1497 1497 1497 1497 1497 1496 1496 1496 1495 1493 1492 1491 1490 1489 1488 1486 1485 1483 1481 1480 1478 1476 1474 1473 1471
1481 1482 1483 1483 1484 1484 1485 1486 1486 1487 1487 1488 1489 1489 1490 1491 1492 1493 1494 1494 1494 1494 1494 1494 1494 1493 1493 1492 1491 1489 1488 1487 1486 1485 1483 1481 1480 1478 1477 1475 1473 1471 1470 1468
1480 1481 1482 1482 1482 1483 1484 1484 1484 1485 1486 1486 1487 1487 1488 1489 1490 1490 1491 1491 1491 1491 1491 1491 1491 1490 1490 1489 1488 1486 1485 1484 1483 1481 1480 1478 1477 1475 1474 1472 1470 1468 1466 1465
1479 1480 1480 1480 1481 1481 1482 1482 1483 1484 1485 1484 1485 1486 1487 1487 1488 1488 1488 1489 1489 1489 1489 1488 1488 1488 1487 1486 1485 1483 1482 1481 1480 1478 1477 1476 1474 1472 1471 1469 1467 1466 1464 1462
1478 1478 1479 1479 1479 1479 1480 1481 1482 1482 1483 1483 1483 1484 1485 1485 1485 1486 1487 1487 1487 1487 1487 1486 1486 1485 1484 1483 1482 1481 1480 1478 1477 1475 1474 1473 1471 1470 1468 1466 1465 1463 1461 1459
1476 1477 1478 1478 1478 1479 1480 1480 1481 1481 1481 1481 1482 1483 1483 1484 1484 1485 1485 1485 1485 1484 1484 1484 1483 1482 1482 1481 1479 1478 1477 1475 1474 1473 1471 1470 1468 1467 1465 1463 1462 1460 1458 1456
1476 1477 1477 1477 1478 1478 1479 1479 1480 1480 1481 1481 1481 1481 1482 1483 1483 1483 1483 1483 1483 1482 1482 1482 1481 1480 1479 1478 1477 1476 1474 1473 1472 1470 1469 1467 1466 1464 1462 1461 1459 1457 1455 1453
1476 1476 1476 1476 1477 1478 1478 1479 1479 1479 1480 1480 1480 1480 1480 1481 1481 1481 1481 1480 1481 1480 1480 1479 1478 1478 1477 1476 1475 1473 1472 1471 1469 1468 1466 1465 1463 1461 1459 1458 1456 1454 1452 1451
1475 1476 1476 1476 1476 1477 1478 1479 1479 1479 1479 1479 1479 1479 1479 1479 1479 1479 1479 1478 1478 1478 1478 1477 1476 1476 1475 1474 1472 1471 1470 1468 1467 1465 1464 1462 1460 1459 1457 1455 1453 1452 1450 1448
1475 1475 1475 1476 1476 1477 1477 1478 1479 1479 1479 1479 1478 1478 1477 1477 1477 1477 1476 1477 1476 1476 1476 1475 1474 1473 1472 1471 1470 1469 1467 1466 1464 1463 1462 1460 1458 1457 1455 1453 1452 1450 1448 1446
1474 1474 1475 1475 1475 1476 1477 1477 1478 1478 1478 1478 1477 1477 1476 1476 1476 1476 1475 1475 1474 1474 1473 1472 1472 1471 1470 1469 1468 1467 1466 1464 1462 1461 1459 1458 1456 1454 1453 1451 1450 1448 1446 1444
1472 1473 1473 1474 1474 1475 1475 1476 1476 1476 1476 1476 1475 1475 1475 1474 1474 1474 1473 1472 1472 1471 1471 1470 1470 1469 1468 1467 1466 1465 1464 1462 1461 1459 1457 1455 1454 1452 1451 1449 1448 1446 1444 1442
1471 1471 1472 1473 1474 1474 1474 1475 1475 1474 1474 1474 1473 1473 1473 1473 1473 1472 1471 1471 1470 1469 1469 1469 1468 1467 1467 1466 1464 1463 1462 1460 1459 1457 1455 1453 1452 1451 1449 1448 1446 1444 1442 1440
1470 1471 1471 1472 1472 1473 1473 1473 1473 1473 1473 1472 1472 1472 1472 1472 1471 1470 1470 1469 1469 1468 1468 1467 1467 1466 1465 1464 1463 1462 1460 1459 1457 1456 1454 1452 1451 1449 1448 1446 1444 1442 1441 1439